Slidell, LA

9:35 PM CDT on May 25, 2017 (GMT -0500)
Slidell

Weather History for KASD - November, 2011

Change the Weather History Date:

Tuesday, November 1, 2011

  Actual Average (KNEW) Record (KNEW)
Temperature  
Mean Temperature 56 °F -  
Max Temperature 75 °F 75 °F 87 °F (1997)
Min Temperature 39 °F 61 °F 31 °F (1993)
Degree Days  
Heating Degree Days 9    
Growing Degree Days 6 (Base 50)    
Moisture  
Dew Point 44 °F    
Average Humidity 67    
Maximum Humidity 89    
Minimum Humidity 28    
Precipitation  
Precipitation 0.00 in - - ()
Sea Level Pressure  
Sea Level Pressure 30.20 in    
Wind  
Wind Speed 2 mph (ESE)    
Max Wind Speed 9 mph    
Max Gust Speed 17 mph    
Visibility 9 miles    
Events      
Averages and records for this station are not official NWS values.
T = Trace of Precipitation, MM = Missing Value Source: NWS Daily Summary

Daily Weather History Graph

Daily Weather History Graph

Search for Another Location

Airport or City:

Trip Planner

Search our weather history database for the weather conditions in past years. The results will help you decide how hot, cold, wet, or windy it might be!

Date:

Astronomy

Nov. 01, 2011 Rise Set
Actual Time 7:13 AM CDT 6:11 PM CDT
Civil Twilight 6:48 AM CDT 6:36 PM CDT
Nautical Twilight 6:20 AM CDT 7:05 PM CDT
Astronomical Twilight 5:52 AM CDT 7:33 PM CDT
Moon 12:55 PM CDT (11/1) 11:57 PM CDT (11/1)
Length of Visible Light 11h 48m
Length of Day
10h 58m
Waxing Crescent, 40% of the Moon is Illuminated
Nov 1
Waxing Crescent
Nov 2
First Quarter
Nov 10
Full
Nov 18
Last Quarter
Nov 25
New

Hourly Weather History & Observations

Time (CDT) Temp. Dew Point Humidity Pressure Visibility Wind Dir Wind Speed Gust Speed Precip Events Conditions
12:53 AM 44.1 °F 41.0 °F 89% 30.19 in 10.0 mi Calm Calm - N/A   Clear
1:53 AM 44.1 °F 39.9 °F 85% 30.19 in 10.0 mi Calm Calm - N/A   Clear
2:53 AM 42.1 °F 39.0 °F 89% 30.18 in 10.0 mi Calm Calm - N/A   Clear
3:53 AM 41.0 °F 37.9 °F 89% 30.19 in 10.0 mi Calm Calm - N/A   Clear
4:53 AM 39.9 °F 37.0 °F 89% 30.19 in 10.0 mi Calm Calm - N/A   Clear
5:53 AM 39.0 °F 36.0 °F 89% 30.20 in 10.0 mi Calm Calm - N/A   Clear
6:53 AM 39.0 °F 36.0 °F 89% 30.21 in 10.0 mi Calm Calm - N/A   Clear
7:53 AM 41.0 °F 37.0 °F 86% 30.23 in 10.0 mi Calm Calm - N/A   Clear
8:53 AM 53.1 °F 44.1 °F 71% 30.24 in 10.0 mi Calm Calm - N/A   Clear
9:53 AM 63.0 °F 42.1 °F 46% 30.25 in 10.0 mi East 6.9 mph - N/A   Clear
10:53 AM 69.1 °F 39.9 °F 35% 30.25 in 10.0 mi East 9.2 mph - N/A   Clear
11:53 AM 72.0 °F 37.0 °F 28% 30.23 in 10.0 mi ESE 9.2 mph 17.3 mph N/A   Clear
12:53 PM 72.0 °F 39.9 °F 31% 30.21 in 10.0 mi East 6.9 mph - N/A   Clear
1:53 PM 73.0 °F 44.1 °F 35% 30.19 in 10.0 mi ESE 8.1 mph - N/A   Clear
2:53 PM 73.0 °F 51.1 °F 46% 30.18 in 10.0 mi ESE 9.2 mph - N/A   Partly Cloudy
3:53 PM 71.1 °F 52.0 °F 51% 30.18 in 8.0 mi East 8.1 mph - N/A   Partly Cloudy
4:53 PM 71.1 °F 52.0 °F 51% 30.18 in 5.0 mi East 8.1 mph - N/A   Haze
5:53 PM 66.9 °F 52.0 °F 59% 30.19 in 5.0 mi East 6.9 mph - N/A   Haze
6:53 PM 64.0 °F 52.0 °F 65% 30.19 in 10.0 mi ESE 3.5 mph - N/A   Clear
7:53 PM 63.0 °F 52.0 °F 67% 30.20 in 8.0 mi ESE 4.6 mph - N/A   Clear
8:53 PM 62.1 °F 52.0 °F 70% 30.21 in 10.0 mi ESE 4.6 mph - N/A   Clear
9:53 PM 53.1 °F 48.9 °F 86% 30.21 in 9.0 mi Calm Calm - N/A   Clear
10:53 PM 51.1 °F 46.9 °F 86% 30.21 in 9.0 mi Calm Calm - N/A   Clear